ASL40E LYBE-LGSR

Flight info

Callsign ASL40E
Flight time 1h 29m
Altitude 37000
Route TPL DCT RAXAD DCT RUGAS DCT KOROS DCT NEVRA UT514 TUXEM T514 PEXAN
Aircraft A319/M-SDE2E3FGHIJ1LORVWY/LB1

Departure

Time 2026-05-07 09:10
Airport Belgrade Nikola Tesla Airport (LYBE)

Arrival

Time 2026-05-07 10:39
Airport Santorini International Airport (LGSR)
Time Latitude Longitude Altitude Speed Heading
2026-05-07 08:47 44.82130 20.29136 307 ft 0 kts 212°
2026-05-07 09:01 44.82136 20.29142 307 ft 3 kts 212°
2026-05-07 09:01 44.82153 20.29157 307 ft 3 kts 212°
2026-05-07 09:01 44.82170 20.29172 307 ft 3 kts 212°
2026-05-07 09:02 44.82187 20.29187 307 ft 3 kts 222°
2026-05-07 09:02 44.82197 20.29207 306 ft 3 kts 278°
2026-05-07 09:02 44.82193 20.29226 307 ft 1 kts 302°
2026-05-07 09:02 44.82187 20.29240 307 ft 1 kts 302°
2026-05-07 09:03 44.82186 20.29241 307 ft 0 kts 302°
2026-05-07 09:05 44.82189 20.29235 309 ft 2 kts 302°
2026-05-07 09:05 44.82202 20.29206 307 ft 5 kts 302°
2026-05-07 09:05 44.82222 20.29162 307 ft 6 kts 302°
2026-05-07 09:05 44.82246 20.29108 307 ft 7 kts 302°
2026-05-07 09:06 44.82275 20.29043 309 ft 9 kts 302°
2026-05-07 09:06 44.82310 20.28964 307 ft 10 kts 302°
2026-05-07 09:06 44.82339 20.28907 307 ft 6 kts 321°
2026-05-07 09:06 44.82381 20.28925 307 ft 7 kts 33°
2026-05-07 09:07 44.82422 20.28899 307 ft 8 kts 309°
2026-05-07 09:07 44.82471 20.28855 307 ft 9 kts 348°
2026-05-07 09:07 44.82537 20.28877 307 ft 11 kts 28°
2026-05-07 09:07 44.82579 20.28933 307 ft 6 kts 51°
2026-05-07 09:08 44.82606 20.29002 307 ft 10 kts 69°
2026-05-07 09:08 44.82625 20.29105 306 ft 7 kts 77°
2026-05-07 09:08 44.82622 20.29162 306 ft 8 kts 117°
2026-05-07 09:08 44.82600 20.29211 306 ft 1 kts 122°
2026-05-07 09:09 44.82538 20.29352 307 ft 49 kts 122°
2026-05-07 09:09 44.82235 20.30025 307 ft 113 kts 122°
2026-05-07 09:10 44.81717 20.31199 330 ft 164 kts 124°
2026-05-07 09:10 44.81115 20.32574 978 ft 163 kts 124°
2026-05-07 09:10 44.80521 20.33936 1659 ft 166 kts 122°
2026-05-07 09:10 44.79870 20.35397 2100 ft 191 kts 124°
2026-05-07 09:11 44.79108 20.37097 2610 ft 218 kts 123°
2026-05-07 09:11 44.78262 20.38986 3336 ft 234 kts 124°
2026-05-07 09:11 44.77379 20.40960 4349 ft 240 kts 124°
2026-05-07 09:11 44.76478 20.42976 5481 ft 244 kts 124°
2026-05-07 09:12 44.75566 20.45018 6531 ft 248 kts 124°
2026-05-07 09:12 44.74655 20.47061 7494 ft 252 kts 124°
2026-05-07 09:12 44.73711 20.49177 8483 ft 257 kts 124°
2026-05-07 09:12 44.72746 20.51331 9433 ft 263 kts 124°
2026-05-07 09:13 44.71762 20.53528 10316 ft 269 kts 125°
2026-05-07 09:13 44.70755 20.55775 11182 ft 273 kts 125°
2026-05-07 09:13 44.69733 20.58055 12039 ft 277 kts 125°
2026-05-07 09:13 44.68590 20.60246 12894 ft 279 kts 137°
2026-05-07 09:14 44.67064 20.61928 13737 ft 281 kts 153°
2026-05-07 09:14 44.65205 20.62959 14139 ft 295 kts 171°
2026-05-07 09:14 44.63153 20.63406 14786 ft 302 kts 174°
2026-05-07 09:14 44.61065 20.63858 15532 ft 304 kts 173°
2026-05-07 09:15 44.58968 20.64332 16275 ft 307 kts 173°
2026-05-07 09:15 44.56865 20.64823 17017 ft 311 kts 173°
2026-05-07 09:15 44.54710 20.65322 17778 ft 315 kts 172°
2026-05-07 09:15 44.52531 20.65814 18532 ft 318 kts 173°
2026-05-07 09:16 44.50331 20.66319 19158 ft 322 kts 172°
2026-05-07 09:16 44.48109 20.66837 19821 ft 324 kts 172°
2026-05-07 09:16 44.45893 20.67344 20473 ft 327 kts 173°
2026-05-07 09:16 44.43635 20.67851 21103 ft 330 kts 173°
2026-05-07 09:17 44.41357 20.68360 21727 ft 333 kts 173°
2026-05-07 09:17 44.39055 20.68877 22436 ft 336 kts 174°
2026-05-07 09:17 44.36731 20.69401 23092 ft 339 kts 174°
2026-05-07 09:17 44.34389 20.69930 23677 ft 343 kts 174°
2026-05-07 09:18 44.32056 20.70455 24174 ft 345 kts 174°
2026-05-07 09:18 44.29670 20.70990 24689 ft 348 kts 174°
2026-05-07 09:18 44.27267 20.71530 25225 ft 351 kts 174°
2026-05-07 09:18 44.24851 20.72075 25779 ft 353 kts 175°
2026-05-07 09:19 44.22413 20.72624 26315 ft 356 kts 175°
2026-05-07 09:19 44.19957 20.73175 26870 ft 358 kts 175°
2026-05-07 09:19 44.17504 20.73725 27375 ft 361 kts 175°
2026-05-07 09:19 44.15025 20.74462 27894 ft 368 kts 167°
2026-05-07 09:20 44.12626 20.75877 28208 ft 384 kts 155°
2026-05-07 09:20 44.10293 20.77844 28346 ft 398 kts 153°
2026-05-07 09:20 44.07897 20.79883 28476 ft 409 kts 153°
2026-05-07 09:20 44.05459 20.81942 28617 ft 420 kts 153°
2026-05-07 09:21 44.02922 20.84073 28768 ft 429 kts 153°
2026-05-07 09:21 44.00351 20.86233 29090 ft 434 kts 153°
2026-05-07 09:21 43.97746 20.88421 29492 ft 438 kts 154°
2026-05-07 09:21 43.95121 20.90625 29913 ft 441 kts 154°
2026-05-07 09:22 43.92491 20.92834 30317 ft 443 kts 154°
2026-05-07 09:22 43.89878 20.95030 30662 ft 445 kts 154°
2026-05-07 09:22 43.87217 20.97264 31011 ft 447 kts 154°
2026-05-07 09:22 43.84553 20.99496 31364 ft 448 kts 154°
2026-05-07 09:23 43.82780 21.00980 31587 ft 449 kts 154°
2026-05-07 09:23 43.79235 21.03944 32181 ft 447 kts 154°
2026-05-07 09:23 43.76580 21.06165 32673 ft 445 kts 154°
2026-05-07 09:23 43.74825 21.07634 33002 ft 443 kts 154°
2026-05-07 09:24 43.72179 21.09844 33507 ft 442 kts 154°
2026-05-07 09:24 43.69550 21.12032 34025 ft 440 kts 154°
2026-05-07 09:24 43.66080 21.14909 34615 ft 438 kts 154°
2026-05-07 09:24 43.64317 21.16371 34898 ft 437 kts 154°
2026-05-07 09:25 43.61734 21.18504 35292 ft 437 kts 154°
2026-05-07 09:25 43.59123 21.20656 35674 ft 437 kts 154°
2026-05-07 09:25 43.56509 21.22809 36046 ft 437 kts 154°
2026-05-07 09:25 43.53892 21.24968 36408 ft 437 kts 154°
2026-05-07 09:26 43.51285 21.27122 36759 ft 436 kts 153°
2026-05-07 09:26 43.48681 21.29275 37050 ft 437 kts 153°
2026-05-07 09:26 43.43473 21.33569 37113 ft 436 kts 153°
2026-05-07 09:27 43.38302 21.37824 37115 ft 436 kts 153°
2026-05-07 09:28 43.30470 21.44253 37126 ft 437 kts 153°
2026-05-07 09:28 43.25236 21.48539 37126 ft 438 kts 153°
2026-05-07 09:29 43.19997 21.52804 37116 ft 438 kts 153°
2026-05-07 09:29 43.14779 21.57041 37115 ft 438 kts 153°
2026-05-07 09:30 43.09524 21.61311 37114 ft 439 kts 153°
2026-05-07 09:30 43.04261 21.65578 37110 ft 439 kts 153°
2026-05-07 09:31 42.98988 21.69855 37111 ft 440 kts 153°
2026-05-07 09:31 42.93735 21.74098 37112 ft 441 kts 153°
2026-05-07 09:32 42.88437 21.78370 37116 ft 442 kts 153°
2026-05-07 09:32 42.83155 21.82625 37117 ft 443 kts 153°
2026-05-07 09:33 42.77828 21.86903 37113 ft 444 kts 154°
2026-05-07 09:33 42.72527 21.91150 37116 ft 444 kts 154°
2026-05-07 09:34 42.67204 21.95411 37117 ft 444 kts 154°
2026-05-07 09:34 42.61867 21.99667 37125 ft 445 kts 154°
2026-05-07 09:35 42.56520 22.03922 37129 ft 445 kts 154°
2026-05-07 09:35 42.51172 22.08176 37136 ft 445 kts 154°
2026-05-07 09:36 42.45858 22.12399 37135 ft 446 kts 154°
2026-05-07 09:36 42.40493 22.16643 37132 ft 446 kts 154°
2026-05-07 09:37 42.35118 22.20884 37140 ft 447 kts 154°
2026-05-07 09:37 42.29714 22.24915 37142 ft 443 kts 161°
2026-05-07 09:38 42.24024 22.28148 37146 ft 443 kts 162°
2026-05-07 09:38 42.18358 22.31368 37141 ft 445 kts 162°
2026-05-07 09:39 42.12635 22.34608 37148 ft 445 kts 161°
2026-05-07 09:39 42.06942 22.37830 37150 ft 446 kts 162°
2026-05-07 09:40 42.01205 22.41075 37145 ft 446 kts 162°
2026-05-07 09:40 41.95475 22.44311 37153 ft 446 kts 162°
2026-05-07 09:41 41.89776 22.47510 37159 ft 446 kts 162°
2026-05-07 09:41 41.84045 22.50724 37157 ft 446 kts 162°
2026-05-07 09:42 41.78320 22.53943 37158 ft 446 kts 162°
2026-05-07 09:42 41.72625 22.57130 37156 ft 445 kts 162°
2026-05-07 09:43 41.66907 22.60308 37156 ft 445 kts 162°
2026-05-07 09:43 41.61167 22.63499 37155 ft 445 kts 162°
2026-05-07 09:44 41.55486 22.66652 37149 ft 444 kts 162°
2026-05-07 09:44 41.49756 22.69832 37141 ft 445 kts 162°
2026-05-07 09:45 41.44031 22.73004 37137 ft 445 kts 162°
2026-05-07 09:45 41.38315 22.76168 37136 ft 446 kts 162°
2026-05-07 09:46 41.32642 22.79597 37140 ft 452 kts 153°
2026-05-07 09:46 41.27528 22.84498 37132 ft 456 kts 148°
2026-05-07 09:47 41.22430 22.89567 37127 ft 457 kts 148°
2026-05-07 09:47 41.17363 22.94575 37132 ft 457 kts 148°
2026-05-07 09:48 41.12241 22.99618 37127 ft 458 kts 148°
2026-05-07 09:48 41.07119 23.04666 37130 ft 459 kts 148°
2026-05-07 09:49 41.01983 23.09717 37123 ft 459 kts 148°
2026-05-07 09:49 40.96840 23.14763 37122 ft 459 kts 147°
2026-05-07 09:50 40.91733 23.19757 37119 ft 460 kts 148°
2026-05-07 09:50 40.86582 23.24784 37118 ft 461 kts 148°
2026-05-07 09:51 40.81414 23.29832 37114 ft 461 kts 148°
2026-05-07 09:51 40.76248 23.34859 37116 ft 461 kts 148°
2026-05-07 09:52 40.71105 23.39848 37121 ft 461 kts 148°
2026-05-07 09:52 40.65925 23.44864 37121 ft 461 kts 147°
2026-05-07 09:53 40.60756 23.49874 37124 ft 461 kts 147°
2026-05-07 09:53 40.55580 23.54881 37124 ft 462 kts 147°
2026-05-07 09:54 40.50401 23.59869 37133 ft 461 kts 147°
2026-05-07 09:54 40.45229 23.64833 37131 ft 460 kts 147°
2026-05-07 09:55 40.40090 23.69760 37126 ft 461 kts 147°
2026-05-07 09:55 40.34917 23.74721 37127 ft 460 kts 148°
2026-05-07 09:56 40.29738 23.79666 37122 ft 460 kts 148°
2026-05-07 09:56 40.24553 23.84610 37122 ft 461 kts 148°
2026-05-07 09:57 40.19363 23.89555 37119 ft 461 kts 148°
2026-05-07 09:57 40.14196 23.94477 37129 ft 462 kts 148°
2026-05-07 09:58 40.08981 23.99420 37120 ft 462 kts 148°
2026-05-07 09:58 40.03762 24.04352 37121 ft 462 kts 148°
2026-05-07 09:59 39.98575 24.09257 37121 ft 462 kts 148°
2026-05-07 09:59 39.93364 24.14174 37123 ft 462 kts 148°
2026-05-07 10:00 39.88169 24.19065 37122 ft 462 kts 148°
2026-05-07 10:00 39.82952 24.23975 37122 ft 462 kts 148°
2026-05-07 10:01 39.77736 24.28865 37118 ft 462 kts 148°
2026-05-07 10:01 39.72513 24.33749 37115 ft 463 kts 148°
2026-05-07 10:02 39.67297 24.38619 37113 ft 464 kts 148°
2026-05-07 10:02 39.62061 24.43508 37117 ft 464 kts 148°
2026-05-07 10:03 39.56801 24.48402 37115 ft 465 kts 148°
2026-05-07 10:03 39.51565 24.53254 37117 ft 465 kts 148°
2026-05-07 10:04 39.46291 24.58136 37114 ft 465 kts 148°
2026-05-07 10:04 39.41017 24.63027 37103 ft 466 kts 148°
2026-05-07 10:05 39.35769 24.67887 37106 ft 467 kts 148°
2026-05-07 10:05 39.30469 24.72766 37124 ft 467 kts 148°
2026-05-07 10:06 39.25200 24.77609 37125 ft 467 kts 148°
2026-05-07 10:06 39.19893 24.82482 37127 ft 468 kts 148°
2026-05-07 10:07 39.14466 24.86999 37123 ft 463 kts 159°
2026-05-07 10:07 39.11479 24.88428 37123 ft 456 kts 170°
2026-05-07 10:07 39.08379 24.89153 37126 ft 449 kts 180°
2026-05-07 10:08 39.02264 24.88573 37113 ft 436 kts 199°
2026-05-07 10:08 38.96457 24.86349 37114 ft 434 kts 202°
2026-05-07 10:09 38.90660 24.84117 37110 ft 436 kts 202°
2026-05-07 10:09 38.84877 24.81901 37117 ft 437 kts 202°
2026-05-07 10:10 38.79047 24.79670 37119 ft 437 kts 202°
2026-05-07 10:10 38.73218 24.77427 37122 ft 438 kts 202°
2026-05-07 10:11 38.67367 24.75186 37123 ft 438 kts 202°
2026-05-07 10:11 38.61506 24.72961 37132 ft 439 kts 202°
2026-05-07 10:12 38.55688 24.70743 37125 ft 439 kts 202°
2026-05-07 10:12 38.49819 24.68505 37133 ft 439 kts 202°
2026-05-07 10:13 38.43957 24.66273 37123 ft 439 kts 202°
2026-05-07 10:13 38.38108 24.64061 36872 ft 441 kts 202°
2026-05-07 10:13 38.35162 24.62946 36407 ft 441 kts 202°
2026-05-07 10:14 38.32227 24.61837 35943 ft 441 kts 202°
2026-05-07 10:14 38.29280 24.60725 35490 ft 441 kts 202°
2026-05-07 10:14 38.26339 24.59616 35058 ft 441 kts 201°
2026-05-07 10:14 38.24391 24.58882 34771 ft 442 kts 201°
2026-05-07 10:15 38.21433 24.57792 34322 ft 445 kts 198°
2026-05-07 10:15 38.17309 24.57121 33697 ft 453 kts 184°
2026-05-07 10:15 38.14159 24.57448 33215 ft 454 kts 174°
2026-05-07 10:15 38.11092 24.58461 32740 ft 457 kts 165°
2026-05-07 10:16 38.08088 24.59749 32276 ft 454 kts 165°
2026-05-07 10:16 38.06109 24.60595 31971 ft 452 kts 165°
2026-05-07 10:16 38.03130 24.61861 31512 ft 451 kts 166°
2026-05-07 10:16 38.00162 24.63109 31059 ft 446 kts 165°
2026-05-07 10:17 37.97226 24.64345 30617 ft 443 kts 165°
2026-05-07 10:17 37.94298 24.65576 30181 ft 439 kts 165°
2026-05-07 10:17 37.91411 24.66792 29684 ft 435 kts 165°
2026-05-07 10:17 37.88592 24.67981 29201 ft 432 kts 165°
2026-05-07 10:18 37.85736 24.69184 28775 ft 428 kts 165°
2026-05-07 10:18 37.82904 24.70377 28280 ft 427 kts 164°
2026-05-07 10:18 37.80095 24.71563 27790 ft 424 kts 164°
2026-05-07 10:18 37.77303 24.72740 27300 ft 421 kts 164°
2026-05-07 10:19 37.74520 24.73913 26820 ft 419 kts 164°
2026-05-07 10:19 37.71796 24.75060 26357 ft 416 kts 164°
2026-05-07 10:19 37.69044 24.76218 25889 ft 414 kts 164°
2026-05-07 10:19 37.66314 24.77363 25435 ft 412 kts 164°
2026-05-07 10:20 37.63600 24.78498 24986 ft 410 kts 164°
2026-05-07 10:20 37.60900 24.79627 24548 ft 407 kts 164°
2026-05-07 10:20 37.58243 24.80737 24116 ft 405 kts 164°
2026-05-07 10:20 37.55567 24.81856 23693 ft 403 kts 164°
2026-05-07 10:21 37.52909 24.82965 23187 ft 400 kts 164°
2026-05-07 10:21 37.50260 24.84069 22679 ft 398 kts 164°
2026-05-07 10:21 37.47644 24.85160 22185 ft 395 kts 164°
2026-05-07 10:21 37.45048 24.86242 21695 ft 392 kts 164°
2026-05-07 10:22 37.42497 24.87304 21221 ft 389 kts 164°
2026-05-07 10:22 37.39935 24.88372 20754 ft 386 kts 164°
2026-05-07 10:22 37.37387 24.89432 20287 ft 384 kts 164°
2026-05-07 10:22 37.34861 24.90480 19829 ft 381 kts 164°
2026-05-07 10:23 37.32351 24.91520 19375 ft 378 kts 164°
2026-05-07 10:23 37.29860 24.92552 18935 ft 376 kts 164°
2026-05-07 10:23 37.27379 24.93578 18489 ft 373 kts 164°
2026-05-07 10:23 37.24923 24.94592 18000 ft 371 kts 163°
2026-05-07 10:24 37.22474 24.95605 17499 ft 368 kts 163°
2026-05-07 10:24 37.20049 24.96611 17009 ft 365 kts 163°
2026-05-07 10:24 37.17675 24.97597 16538 ft 363 kts 163°
2026-05-07 10:24 37.15284 24.98590 16070 ft 360 kts 163°
2026-05-07 10:25 37.12909 24.99573 15614 ft 358 kts 163°
2026-05-07 10:25 37.10554 25.00545 15133 ft 356 kts 163°
2026-05-07 10:25 37.08202 25.01515 14661 ft 354 kts 163°
2026-05-07 10:25 37.05874 25.02474 14203 ft 351 kts 163°
2026-05-07 10:26 37.03566 25.03422 13721 ft 348 kts 163°
2026-05-07 10:26 37.01266 25.04364 13248 ft 345 kts 163°
2026-05-07 10:26 36.98984 25.05300 12789 ft 343 kts 162°
2026-05-07 10:26 36.96722 25.06229 12342 ft 341 kts 162°
2026-05-07 10:27 36.94501 25.07140 11906 ft 339 kts 162°
2026-05-07 10:27 36.92267 25.08059 11452 ft 335 kts 162°
2026-05-07 10:27 36.90101 25.08950 11021 ft 322 kts 162°
2026-05-07 10:27 36.87999 25.09814 10582 ft 311 kts 162°
2026-05-07 10:28 36.85969 25.10646 10206 ft 300 kts 162°
2026-05-07 10:28 36.84023 25.11442 9884 ft 289 kts 162°
2026-05-07 10:28 36.82142 25.12211 9548 ft 279 kts 162°
2026-05-07 10:28 36.80324 25.12954 9219 ft 270 kts 162°
2026-05-07 10:29 36.78565 25.13673 8897 ft 263 kts 162°
2026-05-07 10:29 36.76844 25.14375 8579 ft 264 kts 162°
2026-05-07 10:29 36.75103 25.15085 8255 ft 264 kts 162°
2026-05-07 10:30 36.71614 25.16503 7635 ft 263 kts 162°
2026-05-07 10:30 36.69948 25.17473 7347 ft 266 kts 146°
2026-05-07 10:30 36.68543 25.18991 7047 ft 266 kts 130°
2026-05-07 10:30 36.67542 25.20859 6767 ft 260 kts 115°
2026-05-07 10:31 36.66953 25.22949 6475 ft 253 kts 103°
2026-05-07 10:31 36.66503 25.25060 6182 ft 249 kts 104°
2026-05-07 10:31 36.66056 25.27125 5874 ft 243 kts 104°
2026-05-07 10:31 36.65626 25.29111 5590 ft 232 kts 104°
2026-05-07 10:32 36.65215 25.31018 5307 ft 223 kts 104°
2026-05-07 10:32 36.64817 25.32859 5014 ft 216 kts 104°
2026-05-07 10:32 36.64332 25.34565 4797 ft 206 kts 117°
2026-05-07 10:32 36.63534 25.36007 4590 ft 200 kts 133°
2026-05-07 10:33 36.62480 25.37120 4370 ft 198 kts 148°
2026-05-07 10:33 36.61248 25.37856 4154 ft 196 kts 161°
2026-05-07 10:33 36.59981 25.38449 3860 ft 191 kts 160°
2026-05-07 10:33 36.58758 25.39029 3565 ft 185 kts 160°
2026-05-07 10:34 36.57583 25.39587 3270 ft 181 kts 160°
2026-05-07 10:34 36.56422 25.40134 3044 ft 173 kts 160°
2026-05-07 10:34 36.55304 25.40659 2982 ft 171 kts 160°
2026-05-07 10:34 36.54212 25.41174 2998 ft 160 kts 160°
2026-05-07 10:35 36.53231 25.41639 2768 ft 143 kts 160°
2026-05-07 10:35 36.52334 25.42063 2555 ft 135 kts 161°
2026-05-07 10:35 36.51467 25.42474 2369 ft 131 kts 161°
2026-05-07 10:35 36.50619 25.42874 2198 ft 130 kts 160°
2026-05-07 10:36 36.49777 25.43272 2029 ft 129 kts 160°
2026-05-07 10:36 36.48942 25.43664 1862 ft 128 kts 161°
2026-05-07 10:36 36.48111 25.44056 1687 ft 127 kts 161°
2026-05-07 10:36 36.47287 25.44444 1501 ft 126 kts 161°
2026-05-07 10:37 36.46476 25.44826 1330 ft 126 kts 160°
2026-05-07 10:37 36.45655 25.45211 1158 ft 126 kts 160°
2026-05-07 10:37 36.44837 25.45588 1016 ft 125 kts 160°
2026-05-07 10:37 36.44024 25.45968 804 ft 124 kts 158°
2026-05-07 10:38 36.43234 25.46363 701 ft 121 kts 157°
2026-05-07 10:38 36.42447 25.46719 556 ft 120 kts 158°
2026-05-07 10:38 36.41670 25.47085 354 ft 118 kts 156°
2026-05-07 10:38 36.40908 25.47451 168 ft 116 kts 156°
2026-05-07 10:39 36.40215 25.47780 113 ft 82 kts 159°
2026-05-07 10:39 36.39786 25.47980 96 ft 58 kts 159°
2026-05-07 10:39 36.39399 25.48166 69 ft 55 kts 159°
2026-05-07 10:39 36.39158 25.48276 64 ft 21 kts 159°
2026-05-07 10:40 36.39043 25.48313 63 ft 14 kts 211°
2026-05-07 10:40 36.39012 25.48189 62 ft 17 kts 296°
2026-05-07 10:40 36.39120 25.48124 62 ft 18 kts 339°
2026-05-07 10:40 36.39234 25.48071 69 ft 18 kts 338°
2026-05-07 10:41 36.39360 25.48011 65 ft 21 kts 339°
2026-05-07 10:41 36.39500 25.47947 80 ft 21 kts 340°
2026-05-07 10:41 36.39634 25.47885 88 ft 20 kts 339°
2026-05-07 10:41 36.39760 25.47824 95 ft 18 kts 339°
2026-05-07 10:42 36.39874 25.47770 101 ft 17 kts 339°
2026-05-07 10:42 36.39985 25.47718 104 ft 17 kts 339°
2026-05-07 10:42 36.40095 25.47667 108 ft 17 kts 340°
2026-05-07 10:42 36.40189 25.47624 112 ft 11 kts 339°
2026-05-07 10:43 36.40263 25.47589 113 ft 10 kts 339°
2026-05-07 10:43 36.40268 25.47521 115 ft 7 kts 258°
2026-05-07 10:43 36.40295 25.47477 114 ft 7 kts 331°
2026-05-07 10:43 36.40324 25.47455 114 ft 3 kts 301°
2026-05-07 10:44 36.40316 25.47426 115 ft 5 kts 250°
2026-05-07 10:44 36.40309 25.47405 115 ft 0 kts 249°